Regional Weather Roundup
Issued by NWS

Home | Current Version | Previous Version | Text Only | Print | Product List | Glossary Off
Versions: 1 2 3 4 5 6 7 8 9 10 11 12 13 14 15 16 17 18 19 20 21 22 23 24 25 26 27 28 29 30 31 32 33 34 35 36 37 38 39 40 41 42 43 44 45 46 47 48 49 50

000
ASUS43 KDMX 310707
RWRIA

WEATHER ROUNDUP FOR IOWA
NATIONAL WEATHER SERVICE DES MOINES IA
200 AM CDT SUN AUG 31 2014

NOTE: "FAIR" INDICATES FEW OR NO CLOUDS BELOW 12,000 FEET WITH NO
SIGNIFICANT WEATHER AND/OR OBSTRUCTIONS TO VISIBILITY.

* - THESE STATIONS ARE NOT NWS STATIONS...THUS NOT UNDER NWS
QUALITY CONTROL.  THEY ALSO DO NOT REPORT WEATHER SUCH
AS PRECIPITATION OR FOG.

IAZ001>003-012>014-020>022-031>034-043>046-310800-
   NORTHWEST IOWA

CITY           SKY/WX    TMP DP  RH WIND       PRES   REMARKS
CARROLL *      CLEAR     61  61 100 SE5       29.87F FOG
CHEROKEE *     CLEAR     61  61 100 CALM      29.85F
DENISON *      CLEAR     68  64  88 SE5       29.84F
LE MARS *        N/A     64  63  94 VRB5      29.82F
ORANGE CITY *  CLEAR     64  61  88 SE3       29.84S
SHELDON *      CLEAR     61  61 100 SE6       29.83F
SIOUX CITY     CLEAR     65  63  93 SE8       29.82F
SPENCER        CLEAR     60  58  92 E5        29.86F
STORM LAKE *   CLEAR     61  61 100 SE6       29.86F
$$

IAZ055>058-069>071-079>083-090>094-310800-
   SOUTHWEST IOWA

CITY           SKY/WX    TMP DP  RH WIND       PRES   REMARKS
ATLANTIC *     CLEAR     63  63 100 CALM      29.86F
AUDUBON *      CLEAR     63  61  94 CALM      29.88F
CLARINDA *     CLEAR     64  64 100 CALM      29.89S
COUNCIL BLFS * CLEAR     68  68 100 S9        29.84F
CRESTON *      CLEAR     64  64 100 SE7       29.90S
HARLAN  *      CLEAR     64  63  94 S3        29.89F
LAMONI         CLEAR     68  65  90 S7        29.90S
RED OAK *      CLEAR     66  64  94 S3        29.87S
SHENANDOAH *   CLEAR     68  66  94 SE7       29.87S
$$

IAZ047>049-059>061-072>074-084-310800-
   CENTRAL IOWA

CITY           SKY/WX    TMP DP  RH WIND       PRES   REMARKS
AMES           FOG       61  61 100 CALM      29.89S VSB 1/2
ANKENY *       CLEAR     63  63 100 CALM      29.89R
CHARITON *     FOG       66  64  94 CALM      29.90S VSB 1/2
DES MOINES     PTCLDY    69  65  86 SE6       29.88S
GRINNELL*        N/A     64  63  94 CALM      29.90S FOG
KNOXVILLE *    CLEAR     68  66  94 CALM      29.88S FOG
MARSHALLTOWN   CLEAR     61  61 100 E3        29.89S FOG
PELLA *        CLEAR     66  64  94 CALM      29.90S FOG
PERRY *          N/A     63  61  94 SE6       29.88F FOG
$$

IAZ004>006-015-016-023>025-035-036-310800-
   NORTH CENTRAL IOWA

CITY           SKY/WX    TMP DP  RH WIND       PRES   REMARKS
ALGONA *       CLEAR     61  61 100 SE5       29.89S
CLARION *      CLEAR     61  61 100 SE6       29.89S
ESTHERVILLE    CLEAR     56  56 100 S6        29.87F
FORT DODGE *   CLEAR     59  57  94 CALM      29.89S
MASON CITY     FOG       59  59 100 S3        29.91S VSB 1/4
FOREST CITY *  FOG       59  59 100 CALM      29.90R VSB 1
IOWA FALLS *   FOG       59  57  94 CALM      29.91S VSB 1
$$

IAZ007>011-017>019-026>030-037>042-050>054-066-310800-
   NORTHEAST IOWA

CITY           SKY/WX    TMP DP  RH WIND       PRES   REMARKS
CEDAR RAPIDS   MOCLDY    64  64 100 SE5       29.90S FOG
CHARLES CITY * CLEAR     61  61 100 SE3       29.91R FOG
CLINTON *      CLEAR     63  63 100 S3        29.93F
DECORAH *      CLEAR     64  64 100 CALM      29.89F FOG
DUBUQUE        CLEAR     64  63  96 S3        29.92S
MONTICELLO *   PTCLDY    63  63 100 CALM      29.91S
OELWEIN *      FOG       61  61 100 SE5       29.91S VSB 0
WATERLOO       CLEAR     62  60  93 CALM      29.89S
$$

IAZ064-065-067-068-078-310800-
   EAST CENTRAL IOWA

CITY           SKY/WX    TMP DP  RH WIND       PRES   REMARKS
DAVENPORT      CLEAR     63  63 100 CALM      29.92S FOG
IOWA CITY      PTCLDY    66  65  96 CALM      29.91S
MT. PLEASANT * CLEAR     66  64  94 SE5       29.92S FOG
MUSCATINE *    FOG       64  63  94 CALM      29.92R VSB 1/2
QUAD CITIES    FOG       65  63  93 CALM      29.91F VSB 3/4
$$

IAZ062-063-075>077-085>089-095>099-310800-
   SOUTHEAST IOWA

CITY           SKY/WX    TMP DP  RH WIND       PRES   REMARKS
BURLINGTON     CLEAR     66  66 100 CALM      29.91S FOG
FAIRFIELD *    CLEAR     66  64  94 CALM      29.91S
FORT MADISON * CLEAR     68  68 100 CALM      29.92S FOG
KEOKUK *       FOG       70  68  94 CALM      29.91S VSB 1/2
OSKALOOSA *      N/A     64  63  94 S5        29.90S
CENTERVILLE *  CLEAR     64  64 100 SE3       29.92S
OTTUMWA        CLEAR     68  66  93 S7        29.89F
WASHINGTON *   CLEAR     64  64 100 S6        29.91S
$$

ABBREVIATIONS USED IN REMARKS
   TC - TEMPERATURES IN CELSIUS
  WCI - WIND CHILL INDEX
   HX - HEAT INDEX
  VSB - VISIBILITY
$$



USA.gov is the U.S. government's official web portal to all federal, state and local government web resources and services.